Regional Weather Roundup
Issued by NWS

Home | Current Version | Previous Version | Text Only | Print | Product List | Glossary On
Versions: 1 2 3 4 5 6 7 8 9 10 11 12 13 14 15 16 17 18 19 20 21 22 23 24 25 26 27 28 29 30 31 32 33 34 35 36 37 38 39 40 41 42 43 44 45 46 47 48 49 50
000
ASUS43 KMKX 221612
RWRWI

WISCONSIN REGIONAL WEATHER ROUNDUP
NATIONAL WEATHER SERVICE MILWAUKEE/SULLIVAN WI
1000 AM CST MON JAN 22 2018

NOTE: "FAIR" INDICATES FEW OR NO CLOUDS BELOW 12,000 FEET WITH NO
SIGNIFICANT WEATHER AND/OR OBSTRUCTIONS TO VISIBILITY.

WIZ001-002-006>008-014>016-023>028-221700-
NORTHWEST WISCONSIN

CITY           SKY/WX    TMP DP  RH WIND       PRES   REMARKS
SUPERIOR ARPT  CLOUDY    27  26  96 NE18G26   29.97F WCI  13
ASHLAND        LGT SNOW  28  27  96 NE23G30   29.95F VSB 3/4 WCI  14
HAYWARD        MIX PCPN  28  25  88 NE22G30   29.84F WCI  14
SIREN          CLOUDY    30  26  83 NE17G26   29.83F WCI  18
CUMBERLAND     CLOUDY    30  27  86 NE18G24   29.77F WCI  18
RICE LAKE      CLOUDY    31  28  86 NE17      29.79S WCI  20
CHETEK         CLOUDY    32  27  80 NE8G20    29.77  WCI  25
LADYSMITH      CLOUDY    32  28  85 NE15G21   29.78F WCI  22
EAU CLAIRE     SNOW      32  31  96 NE13      29.72S VSB 1/4 WCI  22
MENOMONIE      LGT SNOW  33  30  88 N14       29.74S WCI  24
NEW RICHMOND   CLOUDY    31  25  78 NE15      29.77S WCI  21
OSCEOLA        CLOUDY    32  26  80 NE14G21   29.82R WCI  22
$$

WIZ003>005-009-010-017-018-221700-
NORTH CENTRAL WISCONSIN

CITY           SKY/WX    TMP DP  RH WIND       PRES   REMARKS
MANITOWISH WTR CLOUDY    27  27 100 NE14      29.83F WCI  16
ARBOR VITAE    CLOUDY    32  30  92 NE9G20    29.81F WCI  24
WOODRUFF       CLOUDY    32  30  92 NE9G20    29.81F WCI  24
RHINELANDER    CLOUDY    31  29  92 NE13G26   29.78F WCI  21
EAGLE RIVER    CLOUDY    30  29  99 NE12      29.82F WCI  20
LAND O LAKES   CLOUDY    29  28  98 NE10G17   29.86F FOG     WCI  20
PHILLIPS       CLOUDY    30  28  93 NE15G24   29.78F WCI  19
TOMAHAWK       LGT SNOW  31  28  88 NE12G21   29.77F WCI  22
MEDFORD        SNOW      31  30  94 NE18G24   29.69F VSB 1/2 WCI  19
MERRILL        LGT SNOW  32  32  99 NE14G20   29.74F VSB 1   WCI  22
$$

WIZ029-030-035-036-043>047-221700-
CENTRAL WISCONSIN

CITY           SKY/WX    TMP DP  RH WIND       PRES   REMARKS
WAUSAU         LGT SNOW  33  31  92 NE13      29.70F VSB 3/4 WCI  24
MOSINEE        LGT SNOW  32  32 100 NE17G25   29.71F VSB 3/4 WCI  21
MARSHFIELD     LGT SNOW  33  32  96 E17G29    29.66S FOG     WCI  22
STEVENS POINT  MIX PCPN  32  32 100 NE21G30   29.65F WCI  20
WAUPACA        LGT RAIN  36  33  91 NE16G25   29.64F WCI  26
WAUTOMA        CLOUDY    34  32  92 NE14G25   29.64F WCI  25
WISC RAPIDS    RAIN      34  33  96 E18G28    29.66F FOG     WCI  23
CAMP DOUGLAS   LGT RAIN  36  34  93 NE14      29.62F FOG     WCI  27
$$

WIZ011>013-019>022-031-037>040-048>050-221700-
NORTHEAST WISCONSIN

CITY           SKY/WX    TMP DP  RH WIND       PRES   REMARKS
ANTIGO         LGT SNOW  31  30  97 NE21G26   29.74F VSB 1   WCI  18
SHAWANO        LGT RAIN  35  32  90 NE15G23   29.75F WCI  25
OCONTO         CLOUDY    33  32  96 NE15G24   29.77F WCI  23
STURGEON BAY   LGT SNOW  35  34  96 NE16G28   29.76F FOG     WCI  25
GREEN BAY      RAIN      35  32  88 NE22G29   29.73F FOG     WCI  23
MANITOWOC      RAIN      37  35  92 NE12G18   29.71F FOG     WCI  29
APPLETON       LGT RAIN  34  34 100 NE18G25   29.69F FOG     WCI  23
CLINTONVILLE   LGT RAIN  34  32  93 E15G25    29.73S WCI  24
OSHKOSH        RAIN      35  34  96 E26G33    29.57F FOG     WCI  22
$$

WIZ032>034-041-042-053>061-221700-
SOUTHWEST WISCONSIN

CITY           SKY/WX    TMP DP  RH WIND       PRES   REMARKS
LA CROSSE      LGT RAIN  38  34  85 NE12G30   29.59F FOG     WCI  30
SPARTA         LGT RAIN  34  33  96 NE14G23   29.62F WCI  24
VIROQUA        CLOUDY    35  35 100 NE21G29   29.55F WCI  23
BOSCOBEL       LGT RAIN  37  32  82 NE8G22    29.55F WCI  31
PRAIRIE DU CHI DRIZZLE   37  34  89 NE8G16    29.52F WCI  31
PLATTEVILLE    CLOUDY    37  37 100 E17G24    29.50F WCI  28
$$

WIZ056-057-062-063-064-067-068-221700-
SOUTH CENTRAL WISCONSIN

CITY           SKY/WX    TMP DP  RH WIND       PRES   REMARKS
REEDSBURG      LGT RAIN  34  34 100 NE13G21   29.60S WCI  25
BARABOO/DELLS  LGT RAIN  34  33  97 NE18G25   29.60F WCI  23
LONE ROCK      MIX PCPN  37  35  92 E15       29.57F VSB 1   WCI  28
MINERAL POINT  CLOUDY    37  37 100 NE18G25   29.51F WCI  27
MADISON        CLOUDY    37  36  96 N8        29.59R WCI  31
MIDDLETON      CLOUDY    38  38 100 NE10      29.58F WCI  31
WATERTOWN      CLOUDY    38  38 100 E18G32    29.55R WCI  28
MONROE         FOG       37  37 100 NE10      29.54F VSB 1/2 WCI  30
JANESVILLE     CLOUDY    39  39 100 CALM      29.56R
$$

WIZ051-052-058>065-066-070>072-221700-
SOUTHEAST WISCONSIN

CITY           SKY/WX    TMP DP  RH WIND       PRES   REMARKS
MILWAUKEE      LGT RAIN  40  39  97 NE9       29.60F FOG     WCI  34
WAUKESHA       LGT RAIN  36  36 100 NE9G16    29.61F FOG     WCI  29
MILWAUKEE/TIMM RAIN      37  34  87 NE12      29.61F WCI  30
RACINE         LGT RAIN  41  41 100 SE9       29.59F VSB 1/4
BURLINGTON     MIX PCPN  38  37  96 E6        29.56F WCI  34
KENOSHA        LGT RAIN  45  43  93 SE7       29.56F
FOND DU LAC    RAIN      37  34  89 NE20G25   29.61F FOG     WCI  27
SHEBOYGAN      RAIN      36  36 100 NE17      29.67F FOG     WCI  26
WEST BEND      RAIN      36  36 100 NE12G20   29.63F WCI  27
JUNEAU         CLOUDY    37  36  97 NE23G32   29.51F WCI  25
$$

LSZ147-162-221700-
LAKE SUPERIOR

STATION/POSITION TIME  TEMP    WIND        PRES    WAVE
                       AIR SEA DIR/SP/G            HT/PER
                 (UTC) (F)     (DEG/KT/KT) (MB)    (FT/S)
DEVILS ISLAND    1600   25      50/ 22/ 26 1016.9F
SAXON HARBOR     1540   29      50/ 23/ 28 1013.5F
$$

LMZ867-665-643>646-221700-
LAKE MICHIGAN

STATION/POSITION TIME  TEMP    WIND        PRES    WAVE
                       AIR SEA DIR/SP/G            HT/PER
                 (UTC) (F)     (DEG/KT/KT) (MB)    (FT/S)
NORTHPORT PIER   1540   33      50/  7/ 17 1010.8F
KEWAUNEE LAKESHO 1548   36      40/ 16/ 21 1006.3F
SHEBOYGAN LAKESH 1600   36      20/ 17/ 19 1005.0F
PORT WASHINGTON  1530   38      30/ 14/ 17 1005.1F
MILWAUKEE LAKESH 1550   38      20/  9/ 12   N/A
KENOSHA   LAKESH 1600   38     170/ 12/ 17 1001.7
$$

TC  - TEMPERATURE IN CELSIUS
VSB - VISIBILITY IN STATUTE MILES
WCI - WIND CHILL INDEX
HX  - HEAT INDEX





USA.gov is the U.S. government's official web portal to all federal, state and local government web resources and services.